Change the Weather History Date:

Monday, September 30, 2013

  Actual Average Record
Temperature  
Mean Temperature 58 °F 56 °F  
Max Temperature 74 °F 73 °F 88 °F (2010)
Min Temperature 42 °F 39 °F 25 °F (2007)
Degree Days  
Heating Degree Days 7 9  
Month to date heating degree days 165 135  
Since 1 July heating degree days 168 143  
Cooling Degree Days 0 0  
Month to date cooling degree days 35 39  
Year to date cooling degree days 667 588  
Growing Degree Days 8 (Base 50)    
Moisture  
Dew Point 22 °F    
Average Humidity 28    
Maximum Humidity 41    
Minimum Humidity 14    
Precipitation  
Precipitation 0.00 in 0.03 in 0.21 in (2002)
Month to date precipitation 1.79 0.66  
Year to date precipitation 13.04 8.20  
Sea Level Pressure  
Sea Level Pressure 29.93 in    
Wind  
Wind Speed 9 mph (South)    
Max Wind Speed 20 mph    
Max Gust Speed 25 mph    
Visibility 10 miles    
Events      
T = Trace of Precipitation, MM = Missing Value Source: NWS Daily Summary

Daily Weather History Graph

Daily Weather History Graph

Search for Another Location

Airport or City:

Trip Planner

Search our weather history database for the weather conditions in past years. The results will help you decide how hot, cold, wet, or windy it might be!

Date:

Astronomy

Sep. 30, 2013 Rise Set
Actual Time 7:27 AM MDT 7:16 PM MDT
Civil Twilight 7:01 AM MDT 7:42 PM MDT
Nautical Twilight 6:30 AM MDT 8:12 PM MDT
Astronomical Twilight 6:00 AM MDT 8:43 PM MDT
Moon 3:12 AM MDT (9/30) 4:45 PM MDT (9/30)
Length of Visible Light 12h 41m
Length of Day
11h 49m
Waning Crescent, 18% of the Moon is Illuminated
Sep 30
Waning Crescent
Oct 4
New
Oct 11
First Quarter
Oct 18
Full
Oct 26
Last Quarter

Hourly Weather History & Observations

Time (MDT) Temp. Windchill Dew Point Humidity Pressure Visibility Wind Dir Wind Speed Gust Speed Precip Events Conditions
12:53 AM 50.0 °F - 19.9 °F 31% 29.99 in 10.0 mi Variable 3.5 mph - N/A   Clear
1:53 AM 50.0 °F - 19.0 °F 29% 29.97 in 10.0 mi South 5.8 mph - N/A   Clear
2:53 AM 44.1 °F - 21.9 °F 42% 29.99 in 10.0 mi Calm Calm - N/A   Clear
3:53 AM 45.0 °F 43.5 °F 21.9 °F 40% 29.96 in 10.0 mi SSE 3.5 mph - N/A   Clear
4:53 AM 45.0 °F 42.6 °F 21.0 °F 39% 29.97 in 10.0 mi SE 4.6 mph - N/A   Clear
5:53 AM 46.0 °F 43.9 °F 19.9 °F 35% 29.96 in 10.0 mi SSE 4.6 mph - N/A   Clear
6:53 AM 46.0 °F 42.5 °F 21.0 °F 37% 29.98 in 10.0 mi SSE 6.9 mph - N/A   Clear
7:53 AM 48.0 °F - 21.0 °F 34% 29.99 in 10.0 mi SSE 9.2 mph - N/A   Clear
8:53 AM 57.0 °F - 24.1 °F 28% 29.97 in 10.0 mi South 3.5 mph - N/A   Clear
9:53 AM 63.0 °F - 24.1 °F 23% 29.97 in 10.0 mi SSW 4.6 mph - N/A   Clear
10:53 AM 66.9 °F - 23.0 °F 19% 29.97 in 10.0 mi SSW 11.5 mph - N/A   Clear
11:53 AM 70.0 °F - 21.0 °F 16% 29.95 in 10.0 mi SSW 13.8 mph - N/A   Clear
12:53 PM 72.0 °F - 21.9 °F 15% 29.93 in 10.0 mi SW 16.1 mph 21.9 mph N/A   Clear
1:53 PM 73.0 °F - 21.9 °F 15% 29.90 in 10.0 mi SW 18.4 mph 25.3 mph N/A   Clear
2:53 PM 73.9 °F - 21.0 °F 14% 29.90 in 10.0 mi SSW 18.4 mph 24.2 mph N/A   Clear
3:53 PM 73.0 °F - 21.9 °F 15% 29.89 in 10.0 mi SW 17.3 mph 24.2 mph N/A   Clear
4:53 PM 72.0 °F - 21.9 °F 15% 29.88 in 10.0 mi SW 17.3 mph 24.2 mph N/A   Clear
5:53 PM 71.1 °F - 21.9 °F 16% 29.88 in 10.0 mi SW 15.0 mph 21.9 mph N/A   Clear
6:53 PM 66.0 °F - 21.9 °F 19% 29.88 in 10.0 mi SW 12.7 mph 20.7 mph N/A   Clear
7:53 PM 61.0 °F - 21.0 °F 21% 29.90 in 10.0 mi SSW 10.4 mph - N/A   Clear
8:53 PM 57.9 °F - 21.9 °F 25% 29.90 in 10.0 mi South 5.8 mph - N/A   Clear
9:53 PM 57.0 °F - 21.9 °F 26% 29.90 in 10.0 mi South 5.8 mph - N/A   Clear
10:53 PM 55.0 °F - 21.9 °F 28% 29.90 in 10.0 mi SSE 8.1 mph - N/A   Clear
11:53 PM 51.1 °F - 21.9 °F 32% 29.90 in 10.0 mi Calm Calm - N/A   Clear